Location: Shannon
(40.5500°S, 175.4167°E)
Time: 20:46:04
(UTC+00:00)

Okean 3 - Pass Details

Date: 17 November 2025
Orbit: 545 x 563 km, 82.5° (Epoch: 06 December)

Event Time Altitude Azimuth Distance (km) Brightness Sun altitude
Rises 14:06:39 0° 195° (SSW) 2,765 7.5 -23.8°
Reaches altitude 10° 14:08:55 10° 202° (SSW) 1,858 6.4 -23.6°
Enters shadow 14:11:46 35° 235° (SW) 919 4.4 -23.3°
